Lebanon, NH

6:30 AM EDT on March 28, 2017 (GMT -0400)
Lebanon Municipal

Weather History for KLEB - November, 2011

Change the Weather History Date:

Saturday, November 19, 2011

  Actual Average Record
Temperature  
Mean Temperature 38 °F -  
Max Temperature 51 °F 43 °F 69 °F (1941)
Min Temperature 26 °F 25 °F 5 °F (1936)
Degree Days  
Heating Degree Days 26    
Moisture  
Dew Point 21 °F    
Average Humidity 48    
Maximum Humidity 81    
Minimum Humidity 29    
Precipitation  
Precipitation 0.00 in - - ()
Sea Level Pressure  
Sea Level Pressure 30.22 in    
Wind  
Wind Speed 7 mph (South)    
Max Wind Speed 14 mph    
Max Gust Speed 23 mph    
Visibility 10 miles    
Events      
Averages and records for this station are not official NWS values.
T = Trace of Precipitation, MM = Missing Value Source: NWS Daily Summary

Daily Weather History Graph

Daily Weather History Graph

Search for Another Location

Airport or City:

Trip Planner

Search our weather history database for the weather conditions in past years. The results will help you decide how hot, cold, wet, or windy it might be!

Date:

Astronomy

Nov. 19, 2011 Rise Set
Actual Time 6:47 AM EST 4:20 PM EST
Civil Twilight 6:16 AM EST 4:51 PM EST
Nautical Twilight 5:41 AM EST 5:26 PM EST
Astronomical Twilight 5:07 AM EST 6:00 PM EST
Moon No Moon Rise 12:47 PM EST (11/19)
Length of Visible Light 10h 35m
Length of Day
9h 32m
Last Quarter, 38% of the Moon is Illuminated
Nov 19
Last Quarter
Nov 25
New
Dec 2
First Quarter
Dec 10
Full
Dec 17
Last Quarter

Hourly Weather History & Observations

Time (EST) Temp. Windchill Dew Point Humidity Pressure Visibility Wind Dir Wind Speed Gust Speed Precip Events Conditions
12:53 AM 26.1 °F - 21.0 °F 81% 30.32 in 10.0 mi Calm Calm - N/A   Clear
1:53 AM 27.0 °F 23.0 °F 21.9 °F 81% 30.31 in 10.0 mi South 3.5 mph - N/A   Clear
2:53 AM 30.9 °F 27.5 °F 23.0 °F 72% 30.30 in 10.0 mi South 3.5 mph - N/A   Overcast
3:53 AM 33.1 °F 26.9 °F 21.9 °F 64% 30.29 in 10.0 mi South 6.9 mph - N/A   Overcast
4:53 AM 34.0 °F 28.0 °F 21.0 °F 59% 30.28 in 10.0 mi South 6.9 mph - N/A   Scattered Clouds
5:53 AM 34.0 °F 25.5 °F 19.9 °F 56% 30.28 in 10.0 mi SSW 11.5 mph - N/A   Clear
6:53 AM 34.0 °F 28.0 °F 21.0 °F 59% 30.30 in 10.0 mi SSW 6.9 mph - N/A   Overcast
8:53 AM 36.0 °F 30.3 °F 19.9 °F 52% 30.30 in 10.0 mi SSW 6.9 mph - N/A   Clear
9:53 AM 39.0 °F 34.0 °F 19.9 °F 46% 30.27 in 10.0 mi Variable 6.9 mph - N/A   Partly Cloudy
10:53 AM 43.0 °F 36.4 °F 19.9 °F 40% 30.25 in 10.0 mi South 12.7 mph - N/A   Clear
11:53 AM 46.0 °F 39.9 °F 19.9 °F 35% 30.21 in 10.0 mi South 13.8 mph - N/A   Clear
12:53 PM 48.9 °F - 19.9 °F 32% 30.19 in 10.0 mi SSW 13.8 mph - N/A   Clear
1:53 PM 51.1 °F - 19.9 °F 29% 30.17 in 10.0 mi South 13.8 mph 23.0 mph N/A   Clear
2:53 PM 51.1 °F - 21.0 °F 31% 30.17 in 10.0 mi South 10.4 mph - N/A   Clear
3:53 PM 48.2 °F - 23.0 °F 37% 30.15 in 10.0 mi South 12.7 mph - N/A   Clear
4:53 PM 46.9 °F - 21.9 °F 37% 30.16 in 10.0 mi SSW 11.5 mph - N/A   Clear
5:53 PM 46.0 °F 41.4 °F 21.9 °F 39% 30.17 in 10.0 mi SSW 9.2 mph - N/A   Clear
6:53 PM 42.8 °F 38.6 °F 23.0 °F 46% 30.15 in 10.0 mi South 6.9 mph - N/A   Clear
7:53 PM 44.6 °F 38.1 °F 21.2 °F 39% 30.14 in 10.0 mi South 13.8 mph - N/A   Clear
8:53 PM 45.0 °F 38.5 °F 21.9 °F 40% 30.16 in 10.0 mi South 13.8 mph - N/A   Clear
9:53 PM 44.1 °F 39.0 °F 21.9 °F 42% 30.14 in 10.0 mi South 9.2 mph - N/A   Clear
10:53 PM 42.1 °F 38.4 °F 23.0 °F 47% 30.14 in 10.0 mi South 5.8 mph - N/A   Clear
11:53 PM 43.0 °F 38.8 °F 24.1 °F 47% 30.12 in 10.0 mi South 6.9 mph - N/A   Mostly Cloudy